Mombasa, Kenya

12:46 PM EAT on June 27, 2017 (GMT +0300)
Mombasa

Weather History for HKMO - March, 2014

Change the Weather History Date:

Wednesday, March 12, 2014

  Actual Average Record
Temperature  
Mean Temperature 84 °F -  
Max Temperature 93 °F 92 °F 94 °F (2016)
Min Temperature 74 °F 73 °F 73 °F (2015)
Cooling Degree Days 18    
Growing Degree Days 34 (Base 50)    
Moisture  
Dew Point 74 °F    
Average Humidity 72    
Maximum Humidity 89    
Minimum Humidity 46    
Precipitation  
Precipitation 0.00 in 0.12 in - ()
Sea Level Pressure  
Sea Level Pressure 29.85 in    
Wind  
Wind Speed 8 mph ()    
Max Wind Speed 18 mph    
Max Gust Speed -    
Visibility 9.2 miles    
Events Rain    
Averages and records for this station are not official NWS values.
T = Trace of Precipitation, MM = Missing Value Source: Averaged Metar Reports

Daily Weather History Graph

Daily Weather History Graph

Search for Another Location

Airport or City:

Trip Planner

Search our weather history database for the weather conditions in past years. The results will help you decide how hot, cold, wet, or windy it might be!

Date:

Astronomy

Mar. 12, 2014 Rise Set
Actual Time 6:27 AM EAT 6:35 PM EAT
Civil Twilight 6:06 AM EAT 6:56 PM EAT
Nautical Twilight 5:42 AM EAT 7:20 PM EAT
Astronomical Twilight 5:18 AM EAT 7:44 PM EAT
Moon 3:30 PM EAT (3/12) 2:57 AM EAT (3/12)
Length of Visible Light 12h 49m
Length of Day
12h 08m
Waxing Gibbous, 83% of the Moon is Illuminated
Mar 12
Waxing Gibbous
Mar 16
Full
Mar 24
Last Quarter
Mar 30
New
Apr 7
First Quarter

Hourly Weather History & Observations

Time (EAT) Temp. Heat Index Dew Point Humidity Pressure Visibility Wind Dir Wind Speed Gust Speed Precip Events Conditions
12:00 AM 82 °F - 75 °F 74% 29.85 in 19 mi South 5.8 mph - -   Scattered Clouds
12:00 AM 82.4 °F 89.5 °F 75.2 °F 79% 29.86 in 6.2 mi South 5.8 mph - N/A   Partly Cloudy
1:00 AM 80.6 °F 86.2 °F 75.2 °F 84% 29.86 in 6.2 mi South 5.8 mph - N/A   Partly Cloudy
2:00 AM 78.8 °F - 75.2 °F 89% 29.83 in 6.2 mi South 8.1 mph - N/A   Partly Cloudy
3:00 AM 79 °F - 76 °F 87% 29.82 in 19 mi SSW 11.5 mph - -   Scattered Clouds
3:00 AM 78.8 °F - 75.2 °F 89% 29.83 in 6.2 mi SSW 11.5 mph - N/A   Partly Cloudy
4:00 AM 78.8 °F - 75.2 °F 89% 29.83 in 6.2 mi South 12.7 mph - N/A   Partly Cloudy
6:00 AM 79 °F - 73 °F 77% 29.85 in 19 mi SSW 6.9 mph - - Rain Light Rain Showers
6:00 AM 78.8 °F - 73.4 °F 83% 29.83 in 6.2 mi SSW 6.9 mph - N/A Rain Light Rain Showers
7:00 AM 77.0 °F - 71.6 °F 83% 29.86 in 6.2 mi SSW 11.5 mph - N/A   Mostly Cloudy
8:00 AM 77.0 °F - 73.4 °F 89% 29.92 in 6.2 mi Calm Calm - N/A   Mostly Cloudy
9:00 AM 82 °F - 71 °F 61% 29.92 in 19 mi SSW 5.8 mph - -   Scattered Clouds
9:00 AM 82.4 °F 87.2 °F 71.6 °F 70% 29.92 in 6.2 mi SSW 5.8 mph - N/A   Mostly Cloudy
10:00 AM 86.0 °F 90.4 °F 69.8 °F 58% 29.92 in 6.2 mi SSW 13.8 mph - N/A   Mostly Cloudy
11:00 AM 91.4 °F 95.4 °F 68.0 °F 46% 29.89 in 6.2 mi SSW 13.8 mph - N/A   Mostly Cloudy
12:00 PM 91.4 °F 96.8 °F 69.8 °F 49% 29.86 in 6.2 mi ESE 6.9 mph - N/A   Mostly Cloudy
1:00 PM 91.4 °F 98.4 °F 71.6 °F 52% 29.83 in 6.2 mi SSE 13.8 mph - N/A   Scattered Clouds
2:00 PM 89.6 °F 96.2 °F 71.6 °F 55% 29.80 in 6.2 mi SE 11.5 mph - N/A   Mostly Cloudy
3:00 PM 89 °F - 72 °F 49% 29.79 in 19 mi SSE 13.8 mph - -   Scattered Clouds
3:00 PM 89.6 °F 96.2 °F 71.6 °F 55% 29.80 in 6.2 mi SSE 13.8 mph - N/A   Mostly Cloudy
4:00 PM 87.8 °F 95.6 °F 73.4 °F 62% 29.77 in 6.2 mi South 11.5 mph - N/A   Partly Cloudy
5:00 PM 86.0 °F 93.4 °F 73.4 °F 66% 29.77 in 6.2 mi SSE 18.4 mph - N/A   Partly Cloudy
6:00 PM 85 °F - 75 °F 65% 29.79 in 19 mi SSE 13.8 mph - -   Scattered Clouds
6:00 PM 86.0 °F 95.1 °F 75.2 °F 70% 29.80 in 6.2 mi SSE 13.8 mph - N/A   Mostly Cloudy
7:00 PM 84.2 °F 92.3 °F 75.2 °F 74% 29.83 in 6.2 mi SSE 9.2 mph - N/A   Partly Cloudy
8:00 PM 82.4 °F 90.9 °F 77.0 °F 84% 29.83 in 6.2 mi SE 11.5 mph - N/A   Mostly Cloudy
9:00 PM 83 °F - 76 °F 74% 29.86 in 19 mi SE 5.8 mph - -   Scattered Clouds
9:00 PM 82.4 °F 90.9 °F 77.0 °F 84% 29.86 in 6.2 mi SE 5.8 mph - N/A   Mostly Cloudy
10:00 PM 82.4 °F 89.5 °F 75.2 °F 79% 29.89 in 6.2 mi ESE 9.2 mph - N/A   Scattered Clouds
11:00 PM 82.4 °F 90.9 °F 77.0 °F 84% 29.89 in 6.2 mi East 5.8 mph - N/A   Partly Cloudy